sat.trackr.live / text

‹ back to catalog

STARLINK-31193

NORAD 58797 · 2024-012L

PAYLOAD ACTIVE UNKNOWN

§ Identity

Operator
Country
US
Launch date
2024-01-15
Launch site
AFETR
Launch vehicle
Mass (kg)
RCS (m²)

Purposes: comms

External: N2YO · Heavens-Above · Gunter

§ Orbital elements

Epoch: 2026-05-24T21:49:02.498880Z

Period
94.27 min
Inclination
43.0037°
Eccentricity
0.0001057
Mean motion
15.27574628 rev/d
Perigee alt
482.3 km
Apogee alt
483.8 km
Semi-major
6,861.2 km
B*
2.0421e-5
RAAN
94.7220°
Arg perigee
272.1426°
Mean anomaly
87.9305°
Rev number
13,289

§ Raw data

STARLINK-311931 58797U 24012L   26144.90905670  .00000300  00000+0  20421-4 0  99932 58797  43.0037  94.7220 0001057 272.1426  87.9305 15.27574628132898

JSON: /api/v1/satellites/58797 · /tle

For live sub-satellite position, see the globe view (requires WebGL).

§ Visibility from observer

Set your observer location to see the next 7 days of passes ≥ 10°. The values pass through the URL so the page stays shareable.

No JS? Fill the form by hand. The geolocation button needs JavaScript.